Theta_e
331 332 334 333 335 338 338 335 333 336 340 340 338 334 332 326 327 340 346 347 350 350 352 355 355 356 351 346 348 346 346 349 348 348 349 349 350 352 355 354 353 355 353 351 353 355 356 356 356 356 356 356 355 355 355 354 354 353 351 350 350 349 349 348 348 347 346 345 344 343 342 341 339 338 337 336 334 332 331 329 328 326 325 324 324 324
329 327 330 336 337 337 335 335 334 333 335 337 335 332 330 327 327 336 344 346 348 347 350 355 355 353 350 347 348 346 348 351 351 350 349 350 350 351 355 355 357 359 355 354 354 354 356 356 356 356 356 355 355 354 354 354 354 352 350 349 349 349 348 349 348 347 347 346 344 342 342 340 338 338 337 335 333 331 330 329 327 325 325 325 325 323
326 326 329 332 333 332 332 332 332 332 333 334 334 331 325 328 332 335 344 349 344 346 352 354 353 351 351 350 348 347 350 351 351 350 350 351 351 351 354 356 358 358 358 360 357 354 356 356 355 355 355 355 355 355 354 354 354 352 350 350 350 350 349 349 348 346 346 345 343 342 341 340 338 337 336 334 332 331 330 328 325 324 324 324 324 322
320 326 331 330 329 331 331 330 330 331 330 331 330 325 322 330 329 325 337 348 344 348 355 356 355 354 355 352 350 349 350 353 351 350 351 350 350 351 352 354 355 355 359 362 358 355 355 355 355 355 354 355 354 355 354 353 354 352 352 351 351 350 348 348 347 346 345 344 343 342 340 339 338 337 335 333 332 331 330 327 324 323 322 322 321 320
323 328 332 329 328 329 328 329 330 328 326 329 330 325 323 330 329 327 338 343 340 345 352 352 346 348 358 355 352 351 351 353 352 352 352 351 349 350 351 352 353 355 358 360 358 356 355 354 355 355 354 355 354 354 354 353 353 352 352 351 350 348 346 346 346 344 343 342 341 341 340 339 337 336 335 334 332 331 330 326 322 321 320 320 320 319
324 327 328 327 328 327 326 327 327 325 322 322 328 330 328 330 330 332 338 337 332 334 346 346 332 339 362 360 352 352 354 355 352 353 353 351 350 349 350 351 353 357 358 357 357 355 355 354 354 354 354 355 354 354 354 353 353 352 351 350 349 347 345 344 343 342 340 340 340 340 339 337 336 336 335 334 332 331 331 327 322 320 320 320 319 318
324 326 326 326 327 327 326 325 325 327 320 316 327 334 331 333 332 331 334 330 324 326 343 345 332 335 347 352 358 358 358 358 352 353 354 352 351 349 349 351 353 357 359 358 357 355 354 354 353 353 353 354 354 354 353 353 352 352 350 349 348 346 345 344 343 343 342 342 341 338 337 335 335 335 334 331 329 327 327 325 322 320 320 319 319 317
326 326 326 327 327 326 325 323 325 329 320 317 330 332 331 333 330 330 328 324 325 332 341 342 340 338 337 348 366 361 357 360 354 354 354 351 351 349 349 350 351 355 358 359 357 356 354 353 352 352 353 354 354 354 353 352 352 351 350 348 348 346 345 343 341 341 343 342 340 337 336 334 333 333 331 328 326 324 324 322 321 320 319 319 319 320
325 324 324 327 326 324 324 323 326 328 322 324 332 330 331 331 331 333 325 322 327 328 328 334 340 340 340 356 369 359 357 361 359 356 353 351 351 350 350 349 350 352 357 358 356 356 353 352 352 352 352 353 354 353 352 352 351 350 350 348 347 345 342 340 338 339 340 339 337 337 336 333 332 331 329 327 325 324 323 321 320 320 319 318 319 321
323 323 325 325 324 324 325 326 327 326 325 328 330 330 331 331 331 330 326 325 322 318 319 325 330 335 341 353 359 355 354 357 360 357 352 352 349 349 351 349 349 350 355 358 356 354 352 351 352 351 352 353 353 353 352 352 351 349 348 346 344 342 340 338 338 338 337 336 335 335 334 332 331 329 327 325 324 323 322 321 320 319 318 318 320 321
322 324 327 325 325 326 325 326 326 325 327 329 332 332 329 333 336 339 344 333 316 318 325 323 325 336 339 342 347 352 353 352 356 356 353 353 350 350 351 349 349 350 353 357 355 353 351 350 351 351 352 352 352 352 351 350 350 348 346 343 341 340 339 339 338 336 336 335 334 333 333 332 329 327 325 324 322 322 321 320 319 318 318 319 321 321
323 321 324 325 326 327 325 325 326 327 329 328 333 329 321 328 337 341 346 334 315 320 333 328 325 329 328 335 343 349 355 352 351 354 355 355 352 350 351 350 350 350 353 355 353 351 350 349 350 350 351 351 351 351 350 350 348 345 342 340 340 339 339 338 336 335 334 332 331 331 331 330 327 325 324 323 321 320 320 318 318 318 319 319 321 322
322 322 323 323 325 326 323 323 325 327 329 327 329 323 316 317 321 324 328 326 319 321 328 327 325 325 328 341 347 346 352 353 350 352 353 355 354 351 350 352 351 350 353 354 352 350 349 349 350 350 350 350 351 350 350 348 345 341 340 339 339 338 336 334 333 333 332 331 330 329 329 327 325 324 323 321 320 319 318 317 318 319 319 319 319 321
316 322 323 321 322 325 323 320 317 320 326 325 323 318 315 315 313 317 322 320 320 321 322 324 327 329 335 346 352 348 347 351 349 348 350 354 354 351 351 353 351 351 353 353 352 350 350 350 349 349 350 349 350 349 348 345 341 339 339 338 337 336 335 333 332 332 331 329 329 328 327 326 324 323 322 320 319 318 317 316 318 319 319 319 320 320
310 314 321 321 321 324 325 323 319 324 327 326 329 323 317 317 315 317 320 318 317 318 318 320 323 327 333 342 351 347 342 350 351 349 356 359 355 352 353 353 351 352 352 351 351 350 349 350 349 349 349 349 349 348 345 341 339 339 338 337 336 335 334 333 331 330 329 328 327 326 325 324 323 322 320 319 318 317 316 316 318 319 319 320 320 319
308 311 323 323 323 325 324 325 325 326 322 323 330 321 313 320 320 315 319 319 317 314 316 322 327 335 346 353 353 347 351 366 364 361 366 362 356 354 354 353 352 351 351 351 350 350 349 349 349 349 348 348 347 344 341 339 338 338 337 336 335 333 331 330 330 329 328 327 326 326 324 323 322 321 319 318 317 316 316 318 319 318 319 320 319 318
307 311 325 323 323 325 322 325 326 322 321 322 321 316 317 327 323 313 314 317 314 311 316 326 333 339 348 356 358 361 370 375 369 364 362 357 355 355 354 353 352 351 350 350 350 349 349 349 349 348 347 346 344 341 339 338 338 337 336 334 332 331 330 328 327 328 328 328 325 324 323 322 321 319 318 317 316 316 317 319 318 318 318 319 318 318
313 311 322 324 322 325 323 325 327 325 327 322 315 318 323 325 323 318 314 314 314 313 318 327 333 333 333 343 360 373 376 372 365 361 358 356 356 355 354 353 352 352 351 350 349 348 349 349 348 347 346 344 341 339 339 338 336 336 335 333 331 331 329 326 324 324 325 325 323 322 321 320 319 318 316 315 316 317 318 318 318 317 317 318 318 318
318 309 317 327 323 324 326 323 322 324 328 323 319 325 324 315 315 316 312 313 313 314 321 328 333 334 333 341 355 365 372 372 365 361 359 357 357 355 354 354 353 353 351 350 349 348 348 347 346 346 345 342 339 338 338 337 336 335 333 331 330 328 327 325 324 323 322 322 321 320 319 318 317 317 317 316 316 317 318 318 318 316 317 317 317 317
322 312 313 324 326 325 326 323 317 317 324 326 323 325 326 319 316 314 314 315 312 315 322 327 330 337 347 358 359 360 370 371 364 363 361 358 358 356 354 354 354 353 352 350 349 348 347 346 345 345 342 339 338 338 337 336 335 333 332 330 328 326 325 324 324 324 323 323 322 320 318 318 318 318 318 316 316 317 318 318 317 316 316 317 317 317
324 316 310 320 328 322 320 322 320 319 321 321 318 317 318 318 318 315 314 314 313 316 323 329 335 346 364 374 369 365 368 366 364 364 361 359 358 355 353 354 354 353 351 349 348 347 346 344 344 343 340 338 338 337 337 335 334 332 331 329 327 326 325 324 323 323 322 322 322 321 318 318 318 318 318 317 316 317 317 317 317 316 317 317 318 318
321 319 313 316 318 314 319 326 326 325 324 321 319 317 315 316 315 312 311 315 315 313 318 329 337 350 370 376 373 369 365 365 365 362 361 361 357 355 354 353 353 352 350 348 347 346 345 344 342 340 339 338 337 337 336 335 333 331 330 328 326 326 325 323 323 323 322 320 319 319 318 316 316 317 317 317 316 317 317 317 317 316 317 317 318 318
331 325 313 313 317 316 322 328 325 324 328 325 322 321 322 322 317 310 311 318 317 311 321 336 339 351 372 377 374 371 364 364 365 362 362 361 357 355 354 352 352 351 349 348 346 345 344 343 341 339 338 338 337 336 335 334 333 331 329 327 326 325 324 323 322 322 321 320 318 318 318 316 316 316 316 316 316 316 316 316 316 316 316 317 317 318
335 326 315 318 335 336 328 333 337 333 328 324 322 324 324 321 320 316 317 323 318 311 323 342 346 355 371 376 373 370 367 367 365 362 362 359 357 356 353 352 352 350 349 347 345 345 343 342 340 339 339 338 337 336 335 334 333 331 328 326 325 324 323 322 321 320 320 319 318 319 318 317 317 317 316 316 316 316 316 316 316 316 316 316 318 318
324 325 319 316 322 326 325 333 338 331 327 325 326 329 327 324 327 326 326 329 320 316 329 345 347 354 368 372 368 367 368 367 364 362 361 359 357 354 353 352 351 349 348 347 345 344 343 341 340 339 338 337 336 335 335 334 333 331 328 326 325 324 323 322 321 320 320 319 319 319 318 318 318 317 317 317 317 316 316 316 317 317 317 316 318 318
329 332 327 318 315 316 316 319 321 321 323 325 327 327 326 330 332 329 331 331 325 330 347 351 346 354 368 370 366 369 370 367 366 363 358 357 355 353 353 351 349 349 347 346 345 343 342 340 340 339 338 337 336 336 335 334 334 331 328 326 325 324 323 322 321 320 320 319 319 318 318 317 317 318 318 318 318 317 317 317 317 318 319 318 317 318
340 336 340 340 330 322 321 325 329 327 321 318 323 327 329 337 341 339 336 333 333 341 350 352 352 355 361 366 367 369 370 367 366 362 358 358 355 352 352 350 348 349 346 345 345 342 341 340 339 339 338 337 337 336 335 334 332 330 327 325 324 324 323 322 321 320 319 319 318 318 317 317 318 318 318 318 318 317 317 317 317 318 319 319 318 319
341 327 334 343 332 325 331 332 331 330 325 324 328 331 337 342 343 343 337 336 341 340 339 353 362 353 356 369 367 366 370 368 364 361 358 357 354 352 352 349 348 348 346 345 344 342 342 340 339 339 338 338 337 335 335 333 329 328 326 324 324 324 323 322 320 319 318 317 317 317 317 318 318 317 317 317 317 317 317 317 317 318 318 318 318 319
341 324 325 330 325 328 332 327 328 334 335 338 337 336 343 345 342 342 340 343 351 342 338 356 364 354 360 370 363 363 368 365 362 361 358 356 355 353 351 349 348 347 346 345 343 342 342 340 339 339 337 337 336 335 334 333 329 327 326 324 324 324 323 321 320 319 317 316 316 317 317 317 317 317 317 317 317 317 317 317 317 318 318 318 318 318
334 332 338 327 320 328 330 326 332 338 336 339 340 340 345 348 348 352 352 355 360 354 354 366 365 359 365 366 361 363 364 361 360 359 357 357 355 353 351 350 348 347 346 345 343 342 341 339 339 338 337 337 336 334 334 333 331 327 325 324 323 323 322 321 320 319 318 317 318 318 318 317 317 318 317 317 316 316 317 317 318 319 319 319 318 317
325 334 350 333 318 325 335 329 331 339 338 335 338 343 345 344 346 350 354 359 361 359 364 368 365 365 367 363 362 362 360 361 361 359 358 358 354 352 352 350 348 347 346 345 344 342 340 339 339 338 337 336 335 335 334 333 331 327 325 324 323 322 322 320 320 320 319 319 318 318 318 317 317 317 317 317 316 316 317 318 318 319 320 320 319 319
330 334 345 334 317 319 331 327 326 336 338 331 333 341 343 343 343 344 351 358 360 360 362 361 360 366 367 361 361 362 361 362 361 359 359 356 353 352 351 349 348 347 345 345 344 343 341 340 339 338 337 336 335 335 334 331 328 326 325 324 322 322 321 320 321 321 320 319 318 317 317 316 316 317 317 317 317 317 318 318 318 319 320 320 320 320
341 341 336 327 318 320 330 329 327 334 332 326 331 340 344 348 348 346 349 354 357 360 361 361 363 367 365 361 362 363 362 362 361 360 358 355 354 352 350 349 347 346 345 345 343 342 341 340 339 338 337 336 335 335 334 330 327 325 324 324 322 322 321 320 320 320 320 319 318 317 317 315 316 317 317 318 317 317 318 318 318 319 320 321 321 321
350 348 338 330 321 320 330 335 335 332 324 325 337 346 348 349 350 347 348 355 362 363 364 368 371 366 361 361 364 363 362 362 360 357 356 355 354 352 350 348 346 345 345 344 342 342 340 340 340 338 337 336 335 335 333 330 326 325 324 324 323 322 321 321 320 319 319 318 318 318 318 317 316 317 317 318 317 317 318 318 318 320 321 321 322 321
352 348 343 340 328 325 334 339 332 326 327 334 344 347 345 345 348 351 351 358 370 370 368 369 367 363 362 361 361 361 360 360 358 356 356 354 352 352 350 348 347 345 344 343 342 341 340 340 340 338 337 336 335 334 331 328 326 324 324 324 323 322 322 321 320 319 319 319 319 319 318 318 317 317 318 317 316 318 319 318 319 321 322 322 321 322
347 346 347 344 334 332 331 326 324 328 335 344 345 343 345 346 348 353 348 349 361 366 369 371 366 366 367 363 361 361 359 358 358 355 355 354 352 351 349 348 347 345 344 343 342 341 341 340 339 338 337 337 335 333 329 327 325 324 323 324 324 323 322 321 320 319 319 319 321 320 318 318 318 318 318 317 317 318 319 319 321 322 322 321 321 321
344 350 351 338 332 335 326 321 332 337 334 343 347 342 343 342 345 356 348 342 354 362 367 372 368 367 368 365 363 362 358 359 360 356 354 353 352 350 348 347 346 344 344 343 342 341 341 340 339 338 337 336 334 331 328 326 325 324 323 323 323 323 321 321 321 320 319 319 320 320 320 319 319 319 318 318 318 319 319 320 321 322 321 321 321 320
338 345 347 334 332 339 328 322 334 333 330 345 354 345 342 340 347 366 358 348 357 362 361 369 370 366 367 366 363 360 358 362 365 361 356 353 352 351 349 347 346 345 344 343 342 342 341 340 340 338 337 336 333 330 329 327 325 324 324 323 323 322 321 321 321 321 320 319 319 320 321 320 320 321 319 318 319 320 320 321 321 321 321 321 321 320
335 341 347 336 330 334 328 324 332 335 340 357 357 346 346 342 346 361 355 349 362 364 357 362 365 361 363 363 360 359 360 364 366 364 359 354 351 350 348 347 346 345 344 343 342 341 340 340 339 338 337 335 332 331 329 328 326 325 324 323 323 322 322 322 322 322 321 320 320 321 322 321 321 321 320 320 320 320 320 321 321 321 321 321 320 320
344 347 346 331 324 332 335 332 335 339 349 362 356 347 348 348 346 345 336 339 361 366 356 358 361 358 359 359 357 358 362 365 365 362 356 351 349 348 347 346 345 344 343 343 342 341 340 340 339 338 337 334 332 331 330 328 327 325 323 323 323 322 322 322 322 322 321 320 321 322 322 322 321 321 321 321 321 320 321 322 322 321 321 321 321 321
349 352 346 333 328 336 340 334 335 345 357 360 352 347 349 348 343 337 335 348 365 363 356 357 357 355 357 358 360 363 362 359 358 356 353 349 348 347 345 345 344 343 342 342 342 341 340 339 339 338 336 334 332 331 330 328 327 324 323 323 322 322 322 322 322 322 322 322 323 323 323 322 321 321 322 321 321 321 322 322 322 321 321 321 322 322
344 346 348 342 334 338 346 344 341 348 360 357 349 353 354 345 341 348 358 363 364 361 358 355 353 355 358 360 361 362 358 353 353 354 353 351 350 348 344 343 343 342 342 342 342 341 340 339 339 337 335 334 332 331 330 329 327 324 324 323 323 322 322 322 322 323 323 324 324 323 323 322 322 322 322 321 321 321 322 322 321 321 321 321 321 322
348 342 341 344 343 344 349 346 337 341 356 354 346 352 360 353 359 374 371 357 356 362 359 354 354 354 355 356 355 353 352 352 352 352 351 350 349 347 344 343 343 342 342 343 342 341 341 340 339 337 335 333 332 331 330 328 327 325 324 323 323 322 322 322 323 323 323 323 323 323 323 323 323 322 322 321 321 321 320 321 320 320 321 321 320 321
355 351 346 348 351 348 345 346 348 357 369 359 346 356 367 365 371 381 368 354 357 361 358 357 356 351 350 353 352 348 349 350 348 349 350 349 349 347 343 342 342 342 342 342 341 341 340 338 337 336 334 333 332 331 329 328 327 326 324 323 323 323 323 323 323 322 321 320 322 323 324 324 323 322 321 321 320 320 320 320 320 321 321 320 320 321
350 364 362 354 351 353 357 365 373 375 367 352 349 363 369 363 364 367 363 360 361 360 359 358 354 349 348 349 348 347 348 348 347 347 349 350 349 346 343 341 341 341 341 341 340 340 339 338 336 335 334 333 332 331 330 328 326 325 324 323 323 323 323 323 323 321 319 320 322 323 323 323 322 322 321 320 320 320 320 320 321 321 320 320 320 321
347 357 362 358 353 352 358 364 364 360 354 349 351 355 356 360 365 364 361 364 364 360 358 354 350 348 346 345 349 351 348 346 347 347 346 348 347 344 342 340 340 340 341 340 339 339 338 337 335 334 333 332 332 331 330 328 326 324 323 323 323 322 322 323 323 321 319 320 322 322 322 321 322 321 321 320 320 320 321 321 322 321 321 321 321 322
349 348 357 363 357 352 356 359 355 351 351 353 356 355 355 359 363 363 363 365 363 357 352 349 347 346 344 345 351 352 347 345 346 345 344 344 343 342 340 339 339 340 340 339 339 338 337 335 334 333 332 330 329 329 327 326 326 325 324 323 323 322 322 323 322 321 320 321 321 321 322 321 321 321 320 320 320 321 321 322 321 321 321 321 322 322
350 346 354 361 359 359 362 360 354 351 353 356 360 364 362 358 357 358 359 359 357 354 350 347 345 345 345 346 347 346 345 344 344 344 343 342 342 341 340 339 339 339 339 339 338 337 336 335 333 331 330 329 327 326 325 325 325 325 324 323 323 322 321 321 321 320 320 320 320 321 322 321 320 320 320 320 321 321 321 321 321 320 321 322 322 323
356 349 353 358 357 356 357 354 351 351 353 356 359 362 360 356 355 357 355 353 354 354 351 349 346 344 345 345 344 343 344 344 344 344 343 341 341 340 339 339 339 338 338 338 338 336 335 333 331 330 330 328 327 326 325 325 325 324 323 322 322 321 321 321 321 320 319 319 320 321 321 321 321 321 321 321 321 321 321 321 320 321 321 322 323 324
355 352 357 360 355 354 358 358 355 354 355 356 359 358 355 352 352 355 355 354 355 354 352 351 348 344 342 342 342 342 343 343 344 343 342 341 340 339 338 339 338 338 338 338 337 335 333 331 330 329 329 328 327 326 325 325 325 324 324 322 322 322 321 321 321 321 320 320 321 321 321 321 321 321 321 321 321 321 321 321 321 322 322 323 323 323
357 361 369 369 362 360 361 357 357 362 360 356 355 356 354 353 354 356 355 355 356 356 352 349 348 346 344 341 340 341 342 342 342 341 341 341 338 337 338 338 337 338 337 336 335 333 331 330 329 329 328 328 327 326 325 326 325 325 324 324 323 323 322 322 322 322 321 321 321 321 321 321 321 320 320 320 320 321 321 321 322 322 323 323 324 324
Wind_Speed
2 1 2 4 6 9 10 9 8 8 7 8 7 4 6 6 4 9 11 11 12 7 6 10 8 7 10 13 13 13 12 10 11 12 11 11 9 7 9 11 12 12 12 16 18 19 22 25 26 25 24 22 21 19 20 21 20 17 17 18 18 19 18 14 14 17 17 17 19 18 17 17 15 13 13 13 12 12 13 13 14 14 15 17 18 18
0 2 5 7 9 11 12 11 10 6 7 8 7 5 5 5 5 6 12 12 11 7 5 6 7 8 12 11 10 11 10 10 12 15 13 13 10 9 11 13 13 11 8 7 10 18 24 24 25 24 23 23 21 20 21 22 21 18 17 18 18 18 16 12 13 16 15 15 17 16 15 16 15 13 12 14 13 14 15 14 15 15 16 16 16 16
3 4 8 10 9 10 11 11 10 10 8 7 6 5 5 6 4 0 10 15 11 6 5 7 7 6 8 7 6 6 8 9 12 17 17 16 13 11 11 13 12 8 5 8 11 18 24 25 24 24 22 22 22 21 21 21 21 20 18 18 17 15 13 11 13 15 14 14 15 14 15 16 15 13 12 14 14 14 15 15 16 16 15 15 15 16
4 5 9 12 10 9 10 10 8 9 8 5 5 4 4 5 2 1 8 14 11 4 4 7 5 1 2 3 2 6 8 9 10 14 16 16 16 14 13 13 11 7 7 9 10 14 21 23 23 23 22 22 22 21 22 22 22 21 19 17 16 15 13 13 14 14 13 13 15 14 15 16 15 15 14 14 14 14 14 16 17 16 15 15 14 16
7 7 8 8 10 8 8 10 7 4 6 7 7 6 5 5 6 6 7 10 7 1 3 9 5 3 2 4 4 8 9 10 8 11 12 12 13 12 13 11 7 8 8 10 12 12 16 20 21 23 23 22 22 22 22 23 22 21 19 17 16 16 16 15 15 14 14 16 17 17 17 17 16 15 14 13 13 12 13 16 17 16 15 15 16 18
8 9 7 8 11 7 5 9 7 4 5 6 7 8 8 8 8 6 10 10 6 1 1 8 5 3 5 4 6 7 7 8 6 10 13 11 9 9 10 9 7 8 8 10 12 13 15 18 21 23 23 23 22 22 22 22 22 20 19 18 18 17 16 16 15 15 15 17 18 18 19 20 18 15 13 13 13 14 15 16 16 17 16 17 18 19
5 8 8 10 13 9 7 9 7 5 5 4 7 7 5 6 7 6 12 10 4 2 6 9 6 2 3 4 6 8 8 8 5 9 13 12 10 9 10 8 8 8 8 10 11 13 16 19 20 21 23 24 24 23 23 22 21 20 20 20 19 17 16 15 14 14 14 15 16 16 17 18 18 18 16 16 17 18 18 16 16 16 16 17 19 19
5 7 8 10 11 9 7 7 6 6 5 6 8 4 1 3 6 4 8 7 4 3 5 8 5 3 2 4 5 9 9 8 7 11 14 14 12 11 10 8 9 9 9 11 12 12 15 18 20 21 22 24 25 25 24 23 22 21 21 20 18 17 16 14 13 12 13 14 15 16 17 17 17 19 19 18 19 19 18 17 16 16 16 17 18 20
4 5 6 7 7 6 6 8 9 6 5 7 8 4 3 4 4 1 0 2 3 5 3 7 3 4 2 5 1 8 8 8 12 15 17 16 15 13 11 10 9 10 9 10 12 12 14 17 20 22 23 25 26 26 26 25 24 23 22 20 19 17 15 14 15 15 16 16 16 16 18 18 18 19 20 18 18 18 17 16 16 15 15 15 16 17
5 6 7 6 5 6 8 10 8 6 6 7 6 4 2 2 2 1 1 1 2 4 5 10 6 4 3 5 1 5 7 10 14 15 16 17 14 12 12 12 10 9 8 8 9 11 14 19 23 25 26 26 26 26 26 25 25 24 22 21 20 17 16 16 17 18 17 16 16 18 19 19 19 20 20 18 17 16 16 16 16 15 14 15 15 13
7 7 5 5 5 7 8 8 6 6 8 4 4 4 4 4 3 2 2 3 3 1 5 10 11 7 0 5 6 7 9 14 13 10 12 14 12 11 12 11 10 10 8 8 8 11 16 21 24 26 26 26 26 26 26 25 25 24 23 22 21 19 17 18 17 17 17 17 17 19 19 20 20 20 19 18 18 16 15 16 15 15 15 15 15 13
6 7 5 4 6 6 5 7 5 3 3 2 4 3 4 5 4 5 4 4 3 3 7 7 9 8 3 5 8 10 11 12 13 13 15 16 15 13 12 11 10 10 10 10 9 11 15 18 21 24 24 25 26 26 25 25 25 24 24 23 22 20 18 18 17 17 17 17 18 19 20 20 19 18 18 18 17 16 15 15 16 17 16 15 14 14
5 6 7 5 4 6 5 5 5 5 2 4 4 4 4 3 4 3 3 3 1 5 7 4 7 5 5 6 9 14 14 10 12 15 15 16 17 15 12 11 10 10 11 11 11 11 12 14 18 21 23 24 25 25 25 24 24 26 26 25 24 21 19 18 18 18 17 17 17 18 19 19 18 18 18 18 17 16 14 14 16 15 13 11 11 14
4 7 6 4 4 4 7 5 4 4 2 2 2 3 4 2 1 2 4 3 1 5 7 3 7 2 4 5 8 16 18 14 11 11 10 13 16 15 13 11 11 11 11 10 11 11 11 13 18 20 22 23 23 25 24 24 25 27 26 25 25 22 20 19 19 19 18 17 16 16 17 17 17 18 17 17 17 15 13 13 14 11 8 7 9 13
3 6 5 4 4 4 6 8 7 5 3 4 3 5 4 4 3 3 3 3 3 5 6 1 3 2 2 4 6 13 15 10 6 6 5 7 10 12 11 11 12 11 11 10 10 11 11 16 19 20 21 22 24 25 23 24 26 27 26 25 25 23 21 20 20 19 18 17 16 15 17 17 17 18 18 17 15 14 13 13 12 11 9 9 11 15
4 6 7 7 7 6 7 9 7 6 2 4 3 6 2 5 5 3 3 5 3 1 4 2 1 3 3 4 4 4 5 0 2 5 8 10 11 12 10 10 11 11 11 10 10 10 12 17 20 20 21 23 24 24 23 24 26 26 26 25 24 23 22 21 20 18 18 18 18 17 18 18 17 17 17 16 15 13 15 14 14 15 14 14 16 16
3 6 7 5 6 10 13 11 7 7 4 2 2 3 5 5 7 2 2 3 2 0 5 1 1 3 1 4 6 6 7 6 6 7 9 11 13 12 10 9 10 10 11 10 10 11 13 17 19 20 22 23 24 24 24 25 26 27 27 25 24 23 22 21 19 19 19 20 20 19 19 18 17 16 15 15 14 15 16 14 14 17 18 18 17 16
4 5 8 5 8 11 10 9 7 8 7 4 2 6 3 2 4 3 0 2 2 1 5 1 1 2 2 1 3 6 7 4 6 7 8 9 11 11 9 9 10 10 11 11 11 12 14 17 19 20 21 23 24 24 24 25 25 26 26 24 24 23 21 21 21 22 22 22 22 21 20 19 17 17 16 15 15 16 15 12 12 14 16 17 16 14
5 3 8 5 6 7 1 7 4 4 4 5 4 4 3 2 1 0 1 1 0 2 2 4 3 2 4 3 3 7 8 6 5 6 9 10 10 10 10 10 11 12 11 11 12 11 13 17 19 21 22 24 26 26 25 24 25 26 26 24 24 22 21 21 21 22 22 21 21 21 19 19 18 18 16 14 13 13 12 11 12 12 13 14 13 11
4 2 5 5 4 5 4 4 4 5 4 1 3 2 1 3 3 2 2 4 3 3 2 1 3 2 4 4 4 7 9 10 9 8 9 10 11 11 12 12 12 12 11 11 12 10 12 17 21 23 25 27 30 29 28 27 26 27 26 25 24 23 22 22 21 21 20 19 20 19 19 19 18 17 15 13 12 12 12 13 14 13 14 14 10 10
2 2 3 6 7 5 3 1 4 5 4 1 3 4 2 1 2 2 2 3 4 3 3 3 2 5 5 3 3 6 9 12 12 11 9 9 10 11 12 13 12 12 12 12 12 11 12 18 21 23 26 29 30 29 28 28 28 28 27 26 25 23 22 21 21 20 20 19 19 19 20 19 17 15 14 13 13 13 14 15 14 11 11 10 9 10
2 3 3 3 4 2 3 6 5 7 7 5 5 6 5 4 3 1 4 3 1 3 4 5 3 5 4 1 2 6 11 11 11 12 9 7 9 9 9 11 12 12 12 13 12 11 13 18 21 23 26 28 28 27 28 28 28 28 28 26 25 23 22 21 20 20 20 20 20 20 20 18 16 14 13 13 13 13 13 13 12 10 9 9 10 10
3 3 1 3 3 3 7 9 5 4 5 5 6 6 5 4 5 4 5 4 2 2 2 5 2 4 4 2 2 2 7 8 9 12 11 9 9 10 9 10 11 11 12 13 12 12 15 19 20 23 26 25 25 26 27 27 28 28 27 26 24 23 22 21 19 18 18 19 20 18 17 17 17 16 14 13 13 13 13 13 11 10 11 11 11 9
1 3 1 4 4 4 6 7 5 4 1 1 3 4 5 4 4 6 4 3 1 2 2 3 1 4 4 4 3 5 9 10 9 11 13 11 9 10 11 11 11 11 12 12 11 12 15 19 20 21 23 23 24 26 27 26 27 26 26 25 24 24 23 21 19 19 18 18 17 16 16 18 18 16 14 13 13 13 13 12 10 9 9 9 10 8
0 1 3 3 5 7 8 7 7 6 3 1 3 4 4 4 3 3 2 3 3 3 1 4 2 5 5 3 5 9 12 11 10 10 12 12 11 11 10 10 10 11 12 12 11 11 13 16 17 19 19 21 24 25 25 26 25 25 25 25 24 24 23 21 20 20 18 17 16 15 15 18 18 15 12 12 13 12 11 9 7 5 4 4 6 7
2 2 3 3 0 1 3 3 4 5 5 3 4 5 2 4 7 5 3 5 3 2 2 4 3 4 3 3 7 10 12 12 10 10 9 10 11 11 10 10 10 10 12 12 12 11 11 12 14 16 19 21 23 23 24 25 24 24 25 25 25 25 24 23 21 19 18 17 16 15 16 17 16 13 12 11 11 10 9 7 6 6 4 3 5 6
3 2 3 6 6 5 5 6 6 4 4 6 6 7 5 2 6 6 4 4 3 2 2 2 6 5 1 3 6 7 10 11 10 10 10 9 10 10 10 10 10 10 11 12 11 11 11 11 12 16 19 20 21 23 24 23 22 25 26 25 25 25 25 25 22 19 18 17 17 17 16 14 12 12 13 11 9 9 9 8 6 6 7 6 7 7
5 2 1 5 5 6 8 7 5 4 5 5 7 10 8 5 8 9 6 4 5 4 2 4 8 11 7 7 8 8 9 11 10 10 11 10 10 10 10 10 11 10 10 10 11 11 12 10 10 14 18 19 21 22 23 21 22 26 27 26 27 27 27 26 23 20 19 19 18 17 15 13 11 12 13 10 9 9 9 7 6 5 5 5 5 5
6 1 3 3 2 5 5 3 2 4 7 9 10 10 10 9 9 9 5 4 6 5 3 6 8 11 10 9 9 10 11 12 11 11 11 11 11 11 10 11 11 11 11 11 11 12 12 10 10 14 17 18 21 22 21 20 23 26 27 27 29 29 28 26 22 21 21 21 21 18 15 14 11 11 12 9 7 7 6 6 5 4 3 4 4 3
4 2 4 3 2 6 6 3 5 7 9 10 10 9 9 9 8 7 3 2 4 5 7 8 7 5 4 4 6 8 9 10 10 10 10 12 12 11 11 10 11 12 12 12 12 12 11 11 13 15 17 18 21 22 19 19 23 26 27 29 30 30 28 25 22 22 23 22 21 18 17 16 13 11 11 9 8 7 6 4 3 2 1 2 4 4
3 2 3 3 3 5 8 5 5 9 9 10 10 9 9 9 8 6 4 4 6 5 6 8 6 1 2 4 8 9 9 10 10 10 10 11 12 12 11 11 10 11 12 11 11 11 11 12 13 15 16 19 21 21 19 19 24 27 28 30 31 30 27 23 22 23 23 21 21 19 17 16 13 12 11 10 8 7 6 5 2 2 3 1 2 4
3 1 3 5 4 4 6 6 5 8 10 9 6 6 7 7 5 2 0 2 5 7 7 7 5 3 2 6 10 10 11 12 12 11 10 10 11 12 13 13 11 11 12 12 11 10 10 11 13 15 17 20 21 20 18 22 26 28 29 30 30 29 26 23 23 23 23 23 22 19 16 14 14 13 11 9 9 8 7 6 4 3 4 2 3 3
3 3 2 4 3 4 6 4 2 6 9 6 0 3 5 6 5 3 1 2 2 7 8 5 5 4 6 9 10 9 11 12 12 11 10 11 12 12 13 13 12 11 12 12 12 11 10 11 15 18 20 21 21 19 20 25 28 29 30 31 30 29 27 25 24 24 25 25 23 19 16 13 14 14 11 9 10 9 7 8 6 4 5 3 2 3
3 5 2 2 3 3 7 5 3 5 6 2 4 2 3 5 7 6 3 3 1 3 4 4 5 7 8 10 12 12 11 11 11 11 11 12 12 12 12 12 12 12 12 12 11 11 12 13 15 18 20 21 20 19 22 26 27 28 29 30 29 29 27 26 25 24 25 25 22 19 16 13 14 14 12 11 11 9 8 8 7 4 4 4 2 2
4 4 2 1 3 1 4 6 6 4 1 4 2 2 3 6 9 9 5 3 2 6 7 7 7 8 8 7 9 11 9 8 9 8 9 10 11 11 12 11 12 13 12 11 10 11 14 16 16 17 19 19 19 20 23 25 27 28 28 28 28 27 27 26 25 25 24 23 21 19 17 15 14 12 12 12 12 11 10 9 7 5 5 3 3 2
5 3 2 2 2 1 3 5 3 2 4 4 2 2 3 5 7 7 5 5 2 4 8 8 5 5 6 5 6 7 7 7 6 5 7 9 9 11 12 11 11 12 12 14 14 15 17 20 19 20 20 19 19 22 24 25 27 28 27 26 26 26 27 27 25 24 22 19 19 19 17 15 13 12 12 12 11 12 11 9 8 7 4 4 4 4
6 4 2 2 1 3 3 1 0 1 4 5 3 2 2 1 4 5 4 2 3 2 6 8 6 4 6 6 6 7 8 8 5 3 5 8 10 12 13 13 14 15 16 19 23 24 24 24 23 23 22 21 22 25 26 26 28 28 26 25 25 26 27 25 23 21 18 14 14 16 15 15 14 13 14 13 12 12 11 9 9 7 5 5 5 5
6 5 4 3 0 2 4 0 2 2 2 5 5 6 6 4 3 6 6 2 4 3 6 9 8 7 7 7 7 8 8 7 4 4 5 7 10 11 11 13 16 17 18 20 21 22 23 24 24 24 23 22 24 27 28 28 28 28 26 26 26 27 26 24 21 19 15 13 15 16 16 16 14 14 16 14 12 12 11 10 9 7 6 5 4 3
5 2 4 6 3 2 5 3 1 2 4 7 7 8 8 7 3 4 6 3 5 4 5 7 9 8 7 8 9 9 7 5 5 5 4 7 11 12 11 12 15 17 19 21 21 22 24 24 24 25 24 24 25 26 27 26 27 27 26 25 26 26 24 22 20 18 14 14 17 18 17 15 12 13 15 14 12 12 11 11 10 8 6 4 2 2
7 4 4 5 2 2 5 3 2 2 4 6 5 7 8 5 2 6 4 5 5 4 5 7 9 8 7 8 9 7 5 6 5 4 4 8 10 13 15 15 16 18 19 20 22 23 24 25 25 24 25 25 26 27 27 26 25 25 25 25 25 24 22 20 19 17 15 15 17 18 17 15 12 12 13 13 12 12 11 11 11 9 5 4 3 3
5 4 3 4 2 3 5 3 1 2 4 5 5 7 7 3 5 5 3 6 4 4 5 7 8 7 7 8 7 4 3 3 2 1 6 11 11 12 16 20 21 21 20 20 21 22 23 25 25 25 26 28 29 29 28 26 25 25 25 25 24 22 20 18 17 16 16 17 19 19 17 15 13 13 12 12 12 11 9 9 10 8 5 5 5 5
2 3 3 2 2 2 4 3 0 3 4 4 4 6 4 2 1 3 5 4 3 5 6 6 7 7 6 6 5 4 4 3 1 3 7 12 12 12 15 19 21 21 20 20 20 21 21 22 23 23 25 27 29 29 28 27 25 24 25 25 24 21 19 17 17 17 17 18 20 20 17 16 14 13 13 12 12 11 9 8 9 8 6 5 6 6
1 2 1 1 0 1 3 3 2 2 5 4 2 4 3 2 4 5 2 1 2 5 6 6 6 7 8 6 5 6 6 5 6 6 7 9 13 14 16 19 21 20 21 22 22 22 21 20 20 20 21 23 25 26 27 26 24 23 24 24 22 20 18 19 19 19 17 17 18 19 18 17 16 15 14 12 12 12 11 9 9 9 8 8 7 7
1 3 1 2 2 2 2 1 2 4 5 3 1 1 2 2 4 4 4 3 2 4 5 5 5 6 8 9 8 8 7 7 8 8 6 7 12 14 15 17 20 21 22 23 24 24 23 20 19 19 20 21 22 23 25 24 23 23 24 24 22 21 20 20 20 19 16 15 16 17 17 16 16 16 14 12 12 12 12 11 10 10 10 9 9 9
3 4 4 2 2 3 4 5 5 3 2 3 1 3 2 1 1 4 5 4 2 3 4 5 6 6 7 10 10 8 7 7 8 8 7 8 11 13 14 16 20 23 22 21 22 24 23 21 21 21 22 22 22 24 25 25 24 24 24 24 22 20 19 20 21 19 17 16 16 16 15 15 16 15 14 13 13 13 12 12 13 13 12 11 11 12
2 2 3 2 0 1 1 1 0 2 2 4 4 3 2 4 2 1 4 4 4 4 5 6 8 8 8 9 8 7 7 7 8 6 5 7 10 12 14 16 20 23 22 20 21 23 22 21 22 23 23 23 24 25 27 27 26 25 24 23 20 17 16 20 22 20 17 16 16 15 15 16 16 16 14 14 14 14 14 14 14 14 13 13 13 13
3 1 3 2 2 2 0 2 1 4 3 3 6 5 4 4 4 3 3 4 4 5 5 5 7 8 7 7 8 8 7 8 9 7 4 6 10 11 13 16 19 22 23 23 22 21 20 20 20 21 23 24 25 27 27 26 24 23 22 21 19 17 18 21 21 20 18 16 15 15 16 17 18 17 15 15 16 16 16 15 14 14 14 15 14 12
1 2 2 2 2 2 3 4 3 5 3 3 5 3 2 3 3 4 3 3 4 5 5 5 7 7 6 6 7 9 8 7 9 9 7 7 9 10 13 17 20 21 23 25 25 23 22 21 20 20 22 23 25 27 27 24 21 20 20 21 20 20 21 21 19 17 16 16 16 16 17 18 17 17 17 17 17 17 17 16 15 15 15 15 14 13
2 2 1 2 3 2 0 1 3 5 5 4 3 2 2 2 3 5 5 4 5 6 6 6 6 6 7 7 7 9 10 7 7 8 9 8 8 10 14 18 21 22 23 26 26 25 25 24 23 23 24 25 26 27 25 22 20 20 21 22 22 21 21 20 17 15 15 16 16 17 17 18 18 18 18 18 17 17 17 16 16 16 16 15 15 14
3 1 0 3 4 1 2 3 3 4 2 1 2 3 3 3 4 6 6 5 5 6 6 7 5 5 6 8 8 10 10 7 6 7 8 8 9 13 17 20 21 21 22 22 22 22 25 26 26 26 26 26 27 27 24 22 21 20 21 22 22 20 20 19 17 16 17 17 17 18 19 19 19 19 19 19 19 18 18 16 16 17 17 15 14 13
3 4 3 4 4 5 6 5 4 5 3 4 4 5 4 3 5 6 5 4 4 5 6 7 7 6 7 8 10 11 10 8 8 9 8 8 12 18 21 21 21 21 21 20 19 21 24 26 27 27 27 27 28 27 25 23 21 20 20 22 21 19 19 19 19 19 19 19 19 19 19 20 21 21 21 21 21 20 20 19 17 16 16 15 14 13
Wind_Direction
157 162 264 223 240 251 254 250 232 217 211 219 219 199 200 214 218 189 184 184 171 164 205 189 173 181 190 191 183 174 166 143 137 150 166 186 187 161 156 168 178 185 194 193 174 146 132 135 140 145 149 152 153 154 156 156 157 158 159 160 158 158 158 154 150 148 143 139 139 137 133 128 126 122 113 104 96 85 75 68 63 60 60 57 54 52
100 189 233 226 233 245 255 264 267 255 231 231 229 227 217 213 237 196 170 179 172 162 215 184 145 176 196 193 182 168 150 134 140 149 167 184 184 170 166 174 185 190 183 154 123 120 125 134 140 143 147 150 150 151 154 154 154 156 156 156 157 160 161 158 157 158 157 153 148 144 139 134 131 124 112 102 92 83 77 71 69 70 67 63 59 54
275 249 246 241 238 249 263 270 278 280 257 236 224 227 233 221 254 112 157 176 178 172 208 180 145 179 207 200 183 152 124 135 150 154 167 180 182 181 174 180 191 183 120 94 105 122 131 138 142 142 145 150 151 151 154 154 154 155 154 153 155 160 163 165 165 163 159 155 153 146 141 139 133 122 108 99 91 83 80 78 77 78 75 71 66 54
235 244 244 245 246 251 268 274 277 287 284 270 236 207 234 234 219 110 172 178 176 179 177 151 121 64 247 224 116 81 107 138 152 157 171 183 182 182 183 185 182 153 111 110 123 131 137 141 143 142 144 148 150 152 154 154 154 155 154 154 155 155 156 161 163 158 149 149 152 148 143 141 131 121 111 102 94 86 87 88 84 79 74 71 65 51
224 235 239 251 259 253 272 285 284 285 281 279 258 220 221 229 208 188 166 157 160 193 86 111 87 5 254 213 120 90 118 140 145 159 180 201 191 181 188 185 148 125 128 129 133 138 141 142 143 145 148 149 150 153 157 157 156 154 152 154 153 147 145 148 150 147 143 144 147 143 136 133 127 123 120 111 99 92 100 99 86 76 71 66 56 45
235 240 243 260 268 262 266 277 273 254 258 276 263 236 220 218 223 185 138 139 143 322 157 127 110 284 254 213 148 120 134 147 161 175 185 210 206 189 194 179 123 118 134 133 139 144 142 144 145 146 149 150 150 153 159 160 159 154 150 151 149 143 142 142 143 146 144 143 145 141 134 129 125 122 125 122 109 102 112 109 90 77 71 61 49 44
230 228 220 234 257 260 256 268 263 241 248 266 252 239 226 219 224 160 138 151 161 204 201 164 151 226 250 224 166 143 149 160 183 195 193 205 206 199 199 179 137 133 137 136 144 146 146 148 147 146 147 149 149 151 155 157 156 153 149 147 145 143 142 141 145 151 150 147 146 143 136 129 122 118 120 117 108 106 111 107 90 80 71 58 51 53
216 221 219 221 244 253 255 262 242 211 209 251 259 255 320 249 240 172 144 165 173 145 180 177 145 102 208 239 175 140 146 167 194 206 207 208 202 200 202 185 155 148 149 147 150 152 151 149 146 145 145 147 149 149 149 149 150 150 146 145 145 143 141 139 141 147 150 147 141 138 132 122 117 118 118 114 107 106 106 98 86 78 67 60 61 63
223 221 231 224 238 243 244 247 235 222 225 251 263 243 191 217 239 277 112 203 148 104 163 209 146 86 237 275 103 136 152 188 207 207 209 209 200 196 198 190 163 148 155 154 153 154 148 143 141 141 141 144 149 149 147 146 147 147 144 144 143 139 137 136 136 136 139 140 135 133 129 120 115 118 119 115 109 106 102 93 82 71 62 64 69 67
255 229 219 210 227 231 242 251 249 253 253 259 274 259 220 158 144 80 94 204 89 99 194 213 174 113 258 277 197 160 175 204 215 210 210 210 200 191 194 190 162 144 154 153 146 142 136 135 136 136 137 141 145 148 149 147 145 145 143 142 139 135 135 135 136 134 131 133 132 131 130 122 119 121 118 113 109 107 99 87 73 63 64 71 71 70
264 262 236 200 203 217 237 250 250 241 233 256 345 335 346 9 43 63 88 95 81 297 242 215 181 139 175 253 208 188 197 204 207 210 213 211 201 192 195 189 163 148 151 144 132 128 128 131 133 133 134 137 142 146 148 147 144 143 141 139 135 134 135 133 134 131 127 128 129 130 132 126 123 122 117 111 107 103 94 81 72 73 78 78 75 77
278 276 263 218 194 196 229 253 267 269 207 115 54 41 16 346 359 21 9 38 92 244 263 224 177 146 166 241 218 213 224 207 192 203 208 201 197 194 191 181 160 149 148 141 134 131 130 132 134 133 133 135 139 143 145 146 143 141 140 139 134 133 135 134 132 129 126 125 123 125 129 125 122 120 115 111 106 101 93 84 85 90 88 84 80 80
288 259 262 269 230 183 190 247 289 326 25 86 79 62 57 354 346 6 322 321 154 241 263 195 146 165 225 241 214 211 228 221 196 204 202 191 190 187 180 169 152 147 150 143 138 140 139 139 139 137 135 136 139 141 144 144 142 139 139 138 134 131 134 133 130 127 125 123 121 122 124 121 119 117 114 110 107 103 94 92 101 101 90 83 77 78
296 288 279 284 285 218 181 200 260 283 265 159 149 106 103 101 32 307 281 290 242 264 276 175 136 195 279 268 213 201 214 219 205 206 196 183 180 175 169 156 144 148 149 144 142 144 145 145 143 139 138 138 140 143 144 142 141 138 136 136 133 129 131 131 128 126 122 120 119 120 122 122 119 116 114 111 109 102 94 104 113 101 76 67 70 82
230 290 273 205 247 247 197 202 205 185 178 207 169 123 136 149 155 219 231 224 232 266 291 328 133 182 213 260 232 198 208 217 200 194 165 141 150 152 148 139 140 145 144 144 144 143 145 145 143 141 139 141 143 144 142 139 139 136 134 135 131 128 129 128 127 125 122 120 120 121 123 122 119 115 112 112 109 102 103 113 104 78 73 84 88 89
197 257 254 218 222 218 213 223 193 142 174 244 136 108 179 184 167 210 212 193 184 271 300 328 176 220 204 275 294 158 170 144 108 136 112 109 126 135 136 137 138 142 144 146 143 141 143 144 144 143 142 144 144 142 139 139 139 136 133 133 131 130 128 127 127 127 128 128 126 126 125 122 119 115 113 111 108 107 113 107 83 75 89 99 95 90
178 251 265 261 260 234 218 218 184 154 192 253 120 178 229 173 146 160 269 246 126 114 280 241 143 290 325 323 343 70 81 38 50 83 99 116 128 131 137 138 136 141 145 145 142 141 142 144 147 146 145 146 142 138 139 141 140 137 135 133 130 129 126 124 124 125 131 133 129 127 126 124 120 117 114 112 109 112 112 99 82 85 94 99 97 92
165 257 281 271 279 262 215 183 174 172 155 128 179 215 227 76 96 113 135 324 39 224 272 327 138 212 136 278 333 84 95 60 55 76 95 109 120 127 132 131 134 140 141 140 139 139 142 146 148 147 146 142 135 134 139 140 139 137 136 134 132 130 127 125 124 123 126 128 127 126 125 122 118 116 113 108 109 115 110 96 90 93 94 98 97 87
161 248 288 254 263 289 92 118 160 216 154 140 198 196 144 91 40 64 139 139 183 225 274 346 343 198 176 218 206 151 145 128 102 106 116 123 132 135 133 133 136 137 138 141 140 141 145 146 147 146 142 135 133 137 140 139 139 137 134 134 134 132 130 128 127 125 124 124 125 123 120 116 113 114 112 106 111 118 111 100 99 98 98 98 91 77
154 173 284 287 313 345 20 85 152 251 281 347 335 331 121 146 161 198 182 157 186 217 185 6 331 251 221 226 205 181 160 143 140 142 142 148 151 148 144 143 142 141 143 144 143 146 146 145 146 145 140 137 140 143 144 142 140 137 135 135 135 132 131 129 128 127 125 125 126 122 117 113 112 115 112 108 115 115 106 107 107 106 106 103 97 88
121 173 245 297 336 21 13 343 156 195 229 292 315 289 261 191 149 196 223 142 150 180 169 153 213 262 250 220 211 187 158 154 159 156 156 158 152 150 149 145 143 143 142 143 145 145 143 143 144 143 141 142 144 145 145 145 143 139 138 138 137 135 134 133 132 129 124 122 127 126 121 117 115 118 117 114 118 111 105 113 117 113 111 111 112 103
172 199 211 291 339 27 251 250 195 180 183 183 213 225 214 192 133 162 271 295 143 180 175 151 185 264 266 238 241 188 163 163 161 148 142 137 135 140 145 142 141 141 141 144 145 142 143 144 143 142 142 144 145 146 146 146 144 142 141 140 140 138 136 135 134 131 126 121 122 126 127 124 118 121 126 127 127 121 118 126 129 119 111 119 124 112
160 136 224 276 260 225 246 258 254 217 191 188 211 208 185 162 134 157 234 267 267 237 136 113 138 261 265 328 333 176 148 141 138 134 129 126 134 143 144 140 137 138 141 142 142 143 144 144 142 143 145 146 147 147 148 148 145 144 143 143 142 138 135 134 131 130 131 127 123 121 126 130 123 118 125 133 138 137 131 129 131 127 116 118 127 121
62 82 25 305 300 303 298 301 317 324 47 101 258 220 176 179 171 166 189 200 208 325 33 88 56 266 274 336 31 95 105 110 122 132 133 133 139 144 144 144 140 139 139 138 140 144 142 141 142 144 147 148 148 150 151 149 145 144 145 144 142 138 134 131 129 129 131 134 133 125 125 134 132 122 121 130 140 142 134 128 132 138 131 124 130 133
27 98 78 20 341 342 344 344 347 343 352 5 267 249 197 178 128 98 68 67 53 343 17 121 165 254 275 356 85 106 106 115 128 136 138 137 139 143 145 146 142 140 140 140 140 141 140 142 144 148 151 149 150 153 151 147 146 147 147 146 143 139 137 135 134 133 133 137 143 141 134 137 140 137 133 136 140 138 134 134 137 137 153 167 150 142
116 144 107 93 120 315 327 309 304 309 310 294 290 301 272 142 111 103 83 73 70 333 58 115 169 248 297 59 105 119 121 129 134 133 135 134 135 141 143 144 145 145 146 145 144 144 145 145 145 148 152 152 153 154 150 148 150 151 150 148 145 143 142 143 142 141 142 144 148 151 147 142 145 150 154 153 148 142 136 130 120 96 91 146 146 117
92 101 118 135 161 191 212 234 257 289 319 314 326 355 360 75 103 98 91 100 151 130 60 169 168 147 135 125 126 133 134 135 135 132 132 130 131 137 141 145 147 148 150 149 147 147 147 147 148 151 154 155 155 154 152 152 153 154 153 150 149 150 150 149 147 145 148 150 149 150 152 151 153 155 158 159 154 154 155 140 118 92 84 105 122 103
84 28 148 149 176 209 203 220 279 344 34 26 31 47 42 43 74 84 94 139 145 97 16 240 163 142 177 189 160 157 149 141 140 137 136 138 138 139 144 146 146 148 152 151 148 149 150 149 149 153 157 157 156 156 156 153 154 155 155 152 152 154 153 152 151 147 147 149 147 148 154 161 163 154 152 151 139 142 154 146 124 104 87 88 104 106
104 195 218 168 267 266 236 236 359 56 70 61 54 57 49 46 67 83 103 160 152 131 180 208 168 160 183 189 171 165 154 145 142 138 139 142 141 141 144 146 148 151 153 153 154 154 152 151 155 159 161 158 157 160 160 155 155 156 155 154 156 157 157 156 154 149 146 146 147 150 157 162 162 155 155 157 150 152 164 157 136 116 88 69 76 97
100 232 219 147 349 304 302 340 76 94 85 75 71 66 56 50 55 59 58 117 122 124 146 154 162 187 198 169 155 147 138 136 133 134 142 143 141 142 145 149 152 154 158 162 163 161 156 156 162 163 160 159 161 164 164 160 158 157 155 155 157 159 159 159 158 155 152 150 152 159 164 165 162 157 161 171 179 182 180 171 157 145 143 62 63 84
68 280 262 103 62 304 306 345 80 103 100 95 93 87 81 73 58 46 47 77 80 85 118 123 122 262 306 108 118 124 129 132 136 145 149 147 146 145 149 155 156 157 163 165 165 165 162 158 162 162 160 162 166 168 167 161 157 157 156 156 159 160 159 160 163 165 162 158 160 168 171 171 169 165 169 179 187 189 185 183 194 199 201 193 68 92
77 347 339 56 65 290 302 359 62 97 90 79 80 92 97 93 85 76 212 146 135 135 127 118 131 193 184 121 118 129 140 142 149 155 152 151 154 151 154 160 161 161 164 165 167 167 165 162 163 164 165 167 170 171 166 156 154 156 158 160 162 160 159 162 164 167 168 165 166 169 167 166 171 175 182 187 187 192 197 196 203 214 209 186 83 92
119 95 51 66 68 288 301 352 84 103 75 53 87 147 121 115 122 123 40 350 157 145 145 166 188 174 144 129 126 137 151 154 160 163 158 159 161 159 160 159 161 165 166 167 167 164 166 171 168 168 170 170 171 172 165 159 156 158 160 162 163 161 162 164 161 161 165 166 167 165 156 156 169 178 189 195 189 191 200 207 222 237 218 190 96 78
102 99 123 119 100 285 304 343 39 59 52 322 253 221 154 143 131 113 75 8 31 118 143 166 146 133 140 148 149 157 167 167 167 169 166 163 162 163 164 160 161 164 163 165 166 162 166 173 170 170 173 173 171 168 163 162 161 159 158 159 161 163 162 161 158 158 161 165 169 164 156 161 172 178 191 200 198 200 207 219 234 223 190 190 152 98
103 97 127 104 107 228 321 24 51 50 311 248 272 39 109 127 118 103 72 20 71 107 113 113 125 140 150 153 152 156 160 154 154 163 163 161 160 159 161 165 165 163 161 164 166 165 168 169 168 170 172 173 170 162 158 160 160 157 156 156 159 162 161 157 156 157 159 163 170 169 166 172 177 183 197 202 202 207 217 234 240 204 186 218 219 182
142 135 133 95 103 113 25 45 88 196 261 287 348 60 103 110 113 99 52 355 346 124 123 118 121 130 126 123 128 130 126 119 121 142 158 160 158 154 157 165 168 166 166 168 168 170 173 173 169 168 169 170 166 158 156 158 158 157 157 159 161 161 161 159 156 157 158 162 169 171 173 180 184 190 203 205 202 208 219 233 230 213 223 255 233 215
137 127 103 77 102 123 105 79 48 7 316 320 322 271 275 235 180 139 94 327 288 165 135 127 119 114 118 119 115 112 111 105 104 151 174 162 157 157 161 167 171 172 174 173 173 174 175 174 170 168 168 166 162 159 159 159 159 158 158 160 163 163 163 163 161 161 163 164 169 176 184 192 196 201 208 210 212 219 228 230 222 228 257 261 223 208
137 143 148 135 115 100 110 119 354 43 291 269 261 270 300 302 220 141 109 320 279 214 159 141 139 146 133 121 121 118 113 113 142 206 200 161 153 155 156 161 167 169 170 171 170 169 169 171 169 168 166 164 162 163 162 162 162 161 159 160 163 165 165 166 167 168 170 174 180 189 198 200 202 208 210 213 220 227 231 226 222 238 267 267 238 211
75 105 132 127 151 137 115 132 168 162 226 249 257 277 304 309 289 92 73 326 267 212 170 144 146 157 146 136 139 133 127 147 189 219 208 158 150 148 143 148 157 162 164 166 166 165 167 169 168 166 164 163 164 165 165 164 163 161 160 161 164 166 167 170 172 174 179 184 187 196 204 203 202 207 209 214 222 224 225 228 232 244 264 271 240 208
38 25 54 87 128 132 104 116 176 201 242 251 256 277 290 300 14 67 55 282 255 188 162 154 156 163 155 146 143 138 149 174 195 212 179 146 142 143 143 147 151 153 158 164 166 166 166 166 166 164 162 163 166 167 166 166 163 162 163 165 166 169 171 176 180 183 188 192 192 199 206 205 204 211 213 216 221 225 233 241 237 236 250 264 240 224
23 19 49 74 68 65 85 115 203 241 250 257 276 286 289 334 55 85 192 242 229 172 174 167 157 155 150 148 144 147 183 196 211 199 147 136 133 137 140 142 145 148 154 161 164 164 163 165 168 166 163 166 168 168 168 168 166 165 166 167 170 175 179 183 188 192 197 199 198 201 205 205 207 215 218 221 227 233 237 234 227 228 249 268 259 252
25 19 24 51 45 50 96 116 18 285 251 244 275 297 316 50 92 215 220 224 182 164 166 154 146 142 136 135 134 145 178 192 158 150 148 141 138 137 138 138 138 143 149 153 157 161 162 163 167 167 166 168 168 168 169 171 170 169 169 172 177 183 187 190 192 194 197 199 199 201 205 207 210 215 220 226 231 232 227 222 228 244 259 263 262 264
137 100 14 341 120 56 70 80 68 245 244 257 316 343 8 122 197 213 194 75 122 147 142 132 140 144 137 131 131 142 155 152 143 153 160 147 138 137 140 142 140 141 145 148 154 162 162 161 163 163 161 163 166 168 170 172 172 173 174 179 185 188 190 193 195 195 196 197 199 203 208 212 214 216 221 227 229 229 228 228 236 249 258 262 271 278
131 135 156 220 189 103 83 156 202 208 240 289 6 181 226 222 198 171 132 96 104 140 140 130 136 148 145 138 138 144 149 146 146 154 163 153 141 138 140 142 139 139 145 151 157 161 161 158 155 153 154 160 167 171 173 174 174 176 180 186 190 190 192 196 195 194 196 201 203 206 212 216 215 217 223 229 231 232 230 229 237 249 256 262 273 280
213 187 163 168 184 157 168 210 226 223 267 330 31 190 205 49 89 144 141 138 149 158 153 139 142 154 150 140 141 147 151 152 153 157 163 154 141 136 137 138 136 137 144 151 154 156 157 156 154 152 156 164 172 176 179 180 180 179 184 189 189 188 194 198 195 192 197 204 206 207 209 210 211 216 224 229 232 235 234 235 245 254 259 267 275 278
244 189 128 119 235 169 147 213 135 87 43 32 50 63 70 61 46 92 117 134 167 171 164 157 155 158 155 148 145 144 147 149 144 146 156 141 130 131 132 129 129 134 140 146 150 153 155 156 156 155 157 166 176 180 181 184 185 184 187 189 186 186 194 196 194 195 198 202 207 207 206 209 214 219 225 229 231 236 242 246 251 255 262 273 278 277
316 48 94 98 111 114 48 307 111 120 125 93 76 59 50 51 27 32 97 138 164 161 161 158 145 143 149 153 146 139 140 142 135 135 148 141 135 136 131 127 133 141 145 150 153 152 152 155 159 159 160 166 176 179 178 181 185 187 188 189 188 188 189 189 192 197 198 200 209 214 211 212 217 220 223 227 232 238 244 248 251 257 266 275 277 274
303 70 88 100 107 137 216 230 172 125 107 92 91 90 96 87 55 45 74 113 127 128 135 136 130 134 145 151 142 134 134 141 143 147 159 159 148 141 133 136 145 149 150 153 154 152 155 163 167 166 165 167 172 176 177 179 183 184 184 186 186 183 182 184 190 197 199 201 211 218 215 215 220 224 226 229 235 241 245 245 247 257 267 272 272 271
113 62 104 116 83 49 315 183 122 81 53 42 66 109 154 148 104 78 73 80 95 111 126 130 133 144 150 148 141 134 134 148 160 155 155 155 146 139 139 144 150 152 153 158 160 160 164 169 169 168 168 171 174 176 178 179 181 181 180 180 181 180 181 185 190 198 204 208 214 219 220 222 228 232 233 236 242 246 247 247 250 260 269 272 273 276
88 59 28 94 90 125 235 216 167 118 97 243 197 158 164 162 118 99 94 90 96 115 133 135 139 150 148 148 151 144 141 157 174 162 152 148 143 142 145 147 150 155 159 161 163 164 166 168 168 167 170 173 176 177 178 179 180 181 181 181 182 184 187 190 193 201 208 215 220 224 226 228 233 236 238 243 248 249 250 254 257 262 268 272 275 278
143 173 166 132 150 205 226 221 178 140 158 219 199 163 158 145 109 105 116 118 115 130 141 140 146 156 155 155 160 155 149 160 169 156 139 138 144 147 150 153 156 159 162 161 159 160 163 165 167 168 169 172 175 177 179 182 183 185 187 187 187 191 195 197 201 207 215 222 227 231 234 237 240 243 245 247 249 251 254 259 263 264 265 268 273 276